Temperature
18 17 18 18 17 17 17 17 17 17 17 17 17 17 17 17 17 17 17 17 17 18 18 18 18 18 18 18 18 18 18 18 18 18 18 18 18 18 18 18 17 17 18
17 17 18 18 17 17 17 17 17 17 17 17 17 17 17 17 17 17 17 17 17 17 17 17 17 18 18 18 17 17 18 18 18 18 18 17 18 18 18 18 17 17 17
17 17 17 18 17 17 17 17 17 17 17 17 17 17 17 17 17 17 17 17 17 17 17 17 17 17 17 17 17 17 17 17 17 17 17 17 17 17 17 17 17 17 17
17 17 17 17 17 17 17 17 17 17 17 17 17 17 17 17 17 17 17 17 17 17 17 17 17 17 17 17 17 17 17 17 17 17 17 17 16 17 17 17 17 17 17
17 17 17 17 17 17 17 17 17 17 17 17 17 17 17 17 17 17 17 17 17 17 17 17 17 17 17 17 17 17 17 17 17 17 16 17 17 17 17 17 17 17 17
17 17 17 17 17 17 17 17 17 17 17 17 17 17 17 17 17 17 17 17 17 17 17 17 17 17 17 17 17 17 17 17 16 16 16 16 17 17 17 17 17 17 17
17 17 17 17 17 17 17 17 17 17 17 17 17 17 17 17 17 17 17 16 16 16 17 16 17 17 17 17 17 17 17 17 16 16 16 16 16 17 17 17 17 17 17
17 17 17 17 17 17 17 17 17 17 17 17 16 16 16 16 16 16 16 16 16 16 16 16 17 17 16 17 17 17 17 16 16 16 16 16 16 16 16 17 16 16 16
17 17 17 16 16 17 17 17 17 17 17 17 16 16 16 16 16 16 16 16 16 16 16 16 16 16 16 16 16 16 16 16 16 15 16 16 16 16 16 16 16 16 16
17 17 17 16 16 16 16 16 16 16 16 16 16 16 16 16 16 16 16 16 16 16 16 16 16 16 16 16 16 16 16 16 15 15 15 15 16 16 16 16 16 16 16
17 17 17 16 16 16 16 16 16 16 16 16 16 16 16 16 16 16 16 16 16 16 16 16 16 16 16 16 16 16 16 15 15 15 15 16 16 16 16 16 16 16 16
18 17 17 17 16 16 16 16 16 16 16 16 16 16 16 16 16 16 16 16 16 16 16 16 16 16 16 15 16 16 15 15 15 15 15 15 16 16 16 16 16 16 16
18 17 17 17 17 16 16 16 16 16 16 16 15 16 16 16 16 15 15 15 15 15 15 16 15 15 15 15 15 15 15 15 15 15 15 15 15 15 15 15 15 15 15
18 17 17 17 17 17 16 16 16 16 16 16 16 16 16 16 16 15 15 15 15 15 15 15 15 15 15 15 15 15 15 15 15 15 15 15 15 15 15 15 15 15 15
17 17 17 16 16 16 16 16 16 15 16 16 16 15 16 16 15 15 15 15 15 15 15 15 15 15 15 15 15 15 15 15 15 15 15 15 15 15 15 15 15 15 15
17 17 17 16 16 16 16 16 15 15 15 15 15 15 16 15 15 15 15 15 15 15 15 15 15 15 15 15 15 15 15 15 15 14 14 14 15 15 15 15 15 15 15
18 17 17 16 16 16 16 16 15 15 15 15 15 15 15 15 15 15 15 15 15 15 15 15 15 15 15 15 15 15 15 14 14 14 14 14 14 14 14 14 14 14 14
17 17 17 16 16 16 16 15 15 15 15 15 15 15 15 15 15 15 15 15 15 15 15 15 15 15 15 14 14 14 14 14 14 14 14 14 14 14 14 14 14 14 14
17 17 17 16 16 16 16 15 15 15 15 15 15 15 15 15 15 15 15 15 15 14 14 14 14 14 14 14 14 14 14 14 14 14 14 14 14 14 14 14 14 14 14
17 17 17 16 16 16 16 15 15 15 15 15 15 15 15 15 15 15 15 15 14 14 14 14 14 14 14 14 14 14 14 14 14 14 14 14 14 13 13 13 13 13 14
17 17 17 16 16 16 16 15 15 15 15 15 15 15 15 15 15 15 15 14 14 14 14 14 14 14 14 14 14 14 14 14 14 14 13 13 13 13 13 13 13 13 13
17 17 17 16 16 16 16 15 15 15 15 15 15 15 15 15 15 15 14 14 14 14 14 14 14 14 14 14 14 14 14 14 13 13 13 13 13 13 13 13 13 13 13
17 17 16 16 16 16 15 15 15 15 15 15 15 14 14 14 14 14 14 14 14 14 14 14 14 14 14 14 14 14 14 14 13 13 13 13 13 13 13 13 12 13 12
17 16 16 16 16 15 15 15 15 15 15 15 14 14 14 14 14 14 14 14 14 14 14 14 14 14 14 14 14 14 14 14 14 13 13 13 13 13 12 12 12 12 12
16 16 16 16 15 15 15 15 15 15 14 14 14 14 14 14 14 14 14 14 14 14 14 14 14 14 14 14 14 14 14 14 14 14 13 13 12 12 12 12 12 12 12
16 16 16 16 15 15 15 15 15 15 14 14 14 14 14 14 14 14 14 14 14 14 14 14 14 14 14 14 14 14 14 14 14 14 13 13 13 12 12 12 12 12 12
Wind_Speed
3 4 6 4 5 6 6 7 7 7 7 7 7 8 8 7 7 7 7 7 7 8 8 7 8 8 8 8 7 8 8 8 7 6 6 6 6 6 5 4 1 4 6
3 4 6 4 5 6 7 7 7 8 8 8 8 8 7 7 7 7 7 7 7 8 8 8 8 8 8 9 9 9 9 9 8 6 5 6 7 6 5 4 4 5 6
3 4 6 5 5 6 7 7 7 8 8 8 8 7 7 7 7 7 7 8 8 8 8 7 7 8 9 9 9 9 9 8 7 5 1 4 7 7 5 5 5 6 5
4 4 5 5 4 5 6 7 7 8 8 8 7 8 7 7 7 7 7 8 8 8 8 8 7 8 9 9 9 9 9 8 6 2 3 6 6 8 6 6 5 5 5
5 4 6 5 4 5 6 7 7 7 7 7 7 7 8 8 8 7 7 8 8 8 8 8 8 8 8 8 9 9 8 7 4 4 7 6 7 8 7 7 6 5 5
4 5 6 4 4 5 5 5 6 6 7 7 7 7 6 7 7 8 8 8 8 8 8 8 9 9 9 9 9 8 7 5 3 6 7 7 7 9 8 8 7 7 6
4 4 5 5 4 4 5 5 5 6 6 6 6 6 6 6 7 7 8 7 8 8 8 8 9 9 9 9 9 8 7 4 5 7 7 8 9 8 8 8 8 7 8
4 4 5 5 3 3 4 4 5 5 5 5 5 5 6 6 7 7 7 7 8 8 8 9 9 9 10 10 9 9 8 4 6 7 8 9 11 9 9 9 8 8 8
3 3 3 3 3 3 4 3 4 5 5 5 5 6 6 7 7 7 8 8 8 9 9 10 10 10 10 10 10 10 8 6 6 6 7 8 10 10 10 10 10 10 9
3 3 3 2 2 2 3 4 3 4 4 5 5 6 5 6 8 7 8 9 9 10 10 10 10 11 11 10 10 9 5 3 7 7 7 9 11 10 10 10 11 11 10
3 3 2 2 2 2 3 4 3 4 4 3 5 5 3 5 7 7 10 10 10 10 11 11 11 10 10 11 10 6 3 5 7 7 8 11 10 10 11 11 11 11 11
3 3 3 2 2 2 2 2 2 2 3 2 3 4 4 5 6 7 10 10 10 10 11 10 9 7 4 7 7 3 5 6 6 7 9 11 10 10 11 11 11 12 12
4 4 3 3 3 3 2 2 2 2 2 3 3 4 4 5 5 5 6 7 7 7 7 7 6 6 7 7 6 6 7 6 6 8 11 11 10 10 11 11 12 12 12
3 3 3 3 3 3 3 2 2 2 2 3 3 3 3 3 4 4 4 5 5 5 5 5 5 7 8 8 7 8 8 6 7 7 11 13 12 11 11 12 12 12 12
3 3 3 3 3 3 3 2 2 2 2 3 3 3 3 3 3 4 4 5 5 5 5 5 5 7 7 7 8 8 8 8 8 8 10 14 14 13 12 12 12 13 13
2 2 2 2 2 2 2 2 3 3 3 3 3 3 3 4 3 3 4 4 4 5 5 5 6 6 5 6 7 8 8 8 9 8 9 11 14 15 14 13 13 13 13
2 2 2 1 1 2 2 3 3 3 3 3 3 3 3 3 4 4 3 4 4 5 5 5 6 5 5 5 6 7 7 7 8 8 8 8 10 13 14 14 14 13 13
2 2 3 2 1 2 2 2 3 3 3 3 2 2 3 3 4 4 4 4 4 5 4 4 4 4 5 5 5 5 5 6 7 7 7 8 8 9 12 15 15 14 14
2 2 2 2 2 2 2 2 3 3 3 3 2 2 2 3 4 4 4 4 4 4 3 4 4 4 5 5 5 5 5 5 5 6 7 8 8 8 9 12 13 14 14
2 2 2 2 2 2 2 2 3 3 3 3 3 3 3 3 3 4 4 4 4 3 3 3 5 4 4 4 5 5 5 4 4 5 5 6 7 8 8 8 8 11 13
2 2 2 2 2 2 2 1 2 2 2 2 3 3 3 3 3 4 3 4 4 3 4 4 4 5 4 4 4 4 4 5 5 4 4 4 6 7 7 7 7 7 8
3 3 2 2 2 2 1 1 2 2 2 2 2 2 3 3 3 3 3 3 3 3 4 5 4 3 3 2 2 2 2 3 3 4 3 3 4 5 6 6 7 7 7
4 3 2 3 3 2 2 2 2 2 2 2 2 1 2 2 2 2 3 3 3 3 4 5 5 5 4 3 1 1 1 1 2 3 3 3 3 3 4 5 6 7 7
4 3 3 3 3 2 2 2 3 2 1 1 1 1 2 2 2 1 2 3 3 3 3 4 4 4 3 3 2 1 1 1 1 2 2 2 3 3 3 4 5 6 7
3 3 3 3 2 2 2 2 2 2 1 1 1 2 2 2 2 1 1 2 3 3 3 3 3 4 3 3 2 2 1 1 1 1 2 2 2 2 2 3 3 4 5
4 3 3 3 3 2 2 2 2 2 2 2 2 2 2 2 1 1 1 2 3 3 4 3 3 3 3 4 3 3 3 2 2 2 2 3 2 2 2 2 3 3 4
Wind_Direction
71 79 82 62 65 67 68 71 79 85 89 93 94 92 90 88 89 89 87 87 90 86 85 84 84 83 79 78 82 82 80 81 85 88 88 88 86 87 86 79 86 104 89
84 91 93 75 73 72 72 74 75 81 84 85 86 86 87 87 88 90 90 90 90 86 84 82 80 81 78 75 79 80 77 75 77 80 92 103 89 82 83 75 45 70 88
96 102 109 90 78 74 77 75 76 77 81 83 82 83 84 85 86 87 88 89 87 86 83 80 79 80 77 77 78 77 75 74 74 75 116 96 96 85 84 83 79 80 85
91 98 93 92 85 80 81 79 75 75 78 78 81 82 84 86 87 87 89 88 87 87 84 80 78 81 81 80 79 77 75 72 66 37 66 65 76 81 79 76 81 84 86
89 91 90 91 89 86 83 79 76 74 76 73 74 77 79 82 86 85 87 88 88 87 84 82 81 81 82 82 79 78 77 76 71 53 60 60 67 75 75 73 74 77 86
94 90 89 90 89 88 85 80 77 76 76 73 71 74 75 77 81 83 84 86 87 87 85 82 80 79 80 81 80 79 75 70 84 65 60 60 65 72 72 74 73 70 73
87 86 93 89 87 88 85 78 72 71 72 71 72 76 77 77 81 82 82 84 87 87 85 82 80 80 79 81 80 78 71 53 63 68 64 60 62 68 71 70 68 70 73
84 85 95 100 82 81 79 71 69 71 69 69 69 73 76 78 80 81 81 82 86 87 86 82 81 82 81 80 80 76 62 26 72 69 66 63 62 67 69 66 66 71 74
84 87 93 100 112 124 104 77 69 71 69 74 72 76 81 83 84 84 84 84 86 90 88 86 84 81 81 81 79 75 68 36 58 66 69 65 66 66 66 65 65 69 68
85 80 81 82 81 99 111 104 84 78 76 81 80 79 89 104 101 96 93 89 89 90 90 88 86 83 82 80 79 75 67 63 58 64 64 69 67 65 65 66 68 67 65
84 76 74 73 81 80 81 104 119 123 110 118 111 109 127 101 96 99 84 90 90 90 90 88 87 88 92 90 80 74 66 68 67 59 59 66 70 68 66 69 70 68 68
76 65 61 66 76 81 79 94 105 104 106 100 94 98 90 85 86 92 97 96 96 98 97 93 99 110 104 92 93 91 68 67 66 63 61 63 69 70 70 70 71 71 69
73 73 63 56 62 70 88 78 76 87 94 97 89 100 100 99 102 101 106 111 105 109 100 104 108 85 84 77 70 69 62 58 62 62 59 61 65 69 72 74 74 73 71
83 75 66 49 54 57 73 80 80 89 93 93 94 94 102 97 95 97 99 95 94 91 90 91 86 87 83 83 76 71 69 64 63 68 63 58 60 66 72 77 77 76 73
90 84 72 52 48 54 67 69 82 77 82 95 87 87 103 103 101 107 104 101 96 94 98 93 90 86 79 74 70 67 67 65 67 70 72 62 59 63 69 73 75 76 73
107 96 90 70 62 62 85 82 81 80 87 85 92 91 107 113 117 115 107 103 99 96 93 99 93 87 83 75 72 70 65 67 69 68 73 74 65 61 62 66 71 72 71
116 106 95 85 83 64 75 82 83 92 83 87 92 95 106 117 130 123 112 111 111 110 107 102 97 91 89 84 75 67 64 61 66 68 67 68 76 71 64 64 67 69 71
129 111 102 99 87 81 83 96 91 91 85 80 85 95 103 122 129 122 118 117 118 115 109 109 107 102 98 89 79 70 68 64 61 63 67 69 67 72 74 68 67 68 68
139 125 121 102 97 97 96 100 92 95 89 83 81 77 100 113 122 126 122 122 123 119 117 122 116 112 106 98 90 78 67 63 61 62 66 68 70 73 77 79 74 67 64
144 138 122 109 99 108 114 111 107 99 90 79 75 75 89 111 118 117 128 135 136 134 132 128 122 118 111 110 98 85 73 71 66 60 61 66 67 70 71 74 77 75 68
151 149 129 128 118 115 123 123 110 105 99 85 71 74 90 111 120 124 134 141 150 154 154 146 139 135 133 129 119 107 94 78 72 66 63 67 72 69 70 69 66 67 77
157 161 149 136 130 124 118 118 115 119 111 97 86 93 103 115 125 140 157 155 158 162 164 162 160 156 151 174 178 157 140 118 86 69 68 69 73 76 69 70 70 66 64
164 168 162 150 144 142 136 112 107 114 117 115 99 94 102 114 128 158 170 168 171 178 179 183 184 180 175 179 225 240 198 136 117 98 74 79 77 75 76 74 73 71 68
171 168 168 160 159 149 141 139 142 143 136 132 133 121 114 110 128 151 164 173 180 192 194 198 198 198 191 181 173 270 297 142 176 145 125 99 89 79 74 80 80 75 71
164 166 173 164 165 156 157 156 176 161 156 149 150 140 132 114 107 127 146 181 192 197 211 213 206 212 208 207 200 180 166 180 226 184 155 141 123 92 82 85 94 84 79
158 162 171 174 173 170 181 186 200 183 171 168 170 164 160 141 135 134 168 200 206 205 214 222 221 220 222 220 220 208 200 199 195 191 186 164 139 107 107 97 101 97 88
Height
1541 1540 1538 1537 1537 1537 1536 1536 1535 1535 1535 1535 1534 1534 1534 1534 1534 1534 1534 1534 1534 1534 1534 1534 1534 1533 1533 1533 1532 1532 1532 1532 1531 1531 1531 1531 1531 1531 1531 1531 1531 1532 1531
1541 1540 1539 1539 1538 1538 1538 1537 1537 1536 1536 1535 1536 1535 1535 1535 1535 1535 1535 1535 1535 1535 1535 1535 1535 1535 1534 1534 1534 1533 1533 1533 1532 1532 1532 1532 1531 1531 1531 1531 1531 1532 1531
1542 1541 1541 1540 1539 1539 1539 1538 1538 1538 1537 1537 1537 1536 1536 1536 1536 1536 1536 1536 1536 1536 1536 1536 1536 1536 1535 1535 1535 1534 1534 1534 1533 1533 1533 1534 1533 1532 1532 1532 1532 1531 1531
1543 1542 1542 1541 1540 1540 1540 1540 1539 1539 1538 1538 1538 1537 1537 1537 1537 1537 1537 1537 1537 1537 1537 1537 1537 1537 1536 1536 1536 1535 1535 1535 1535 1534 1535 1535 1534 1533 1532 1532 1532 1532 1532
1543 1543 1542 1542 1541 1541 1541 1541 1540 1540 1540 1539 1539 1539 1539 1539 1539 1538 1538 1538 1538 1538 1538 1538 1538 1538 1537 1537 1537 1536 1536 1536 1535 1536 1535 1535 1534 1533 1533 1533 1533 1532 1532
1544 1544 1543 1542 1542 1542 1542 1542 1541 1541 1541 1540 1540 1540 1540 1540 1540 1539 1539 1539 1539 1539 1539 1539 1539 1538 1538 1538 1538 1537 1537 1537 1537 1537 1536 1536 1535 1534 1534 1534 1534 1533 1533
1546 1545 1544 1543 1543 1543 1543 1543 1542 1542 1542 1542 1541 1541 1541 1541 1540 1540 1540 1540 1540 1540 1540 1540 1540 1540 1539 1539 1539 1538 1538 1538 1539 1538 1538 1537 1536 1536 1535 1535 1535 1534 1534
1546 1546 1545 1544 1544 1544 1544 1544 1543 1543 1543 1542 1542 1542 1542 1541 1541 1541 1541 1541 1541 1541 1541 1541 1541 1541 1540 1540 1540 1540 1540 1540 1540 1540 1539 1539 1538 1537 1537 1536 1536 1535 1535
1546 1546 1546 1546 1545 1544 1544 1544 1544 1544 1543 1543 1543 1543 1542 1542 1542 1542 1542 1542 1542 1542 1542 1542 1542 1542 1542 1541 1541 1541 1541 1541 1542 1541 1541 1540 1539 1539 1538 1537 1537 1536 1536
1547 1547 1546 1546 1546 1546 1545 1545 1544 1544 1544 1544 1544 1543 1543 1543 1543 1543 1543 1543 1543 1543 1543 1543 1543 1543 1543 1543 1543 1543 1542 1543 1543 1543 1542 1541 1540 1540 1539 1539 1538 1538 1537
1548 1547 1547 1547 1546 1546 1546 1545 1545 1545 1545 1545 1545 1545 1545 1545 1545 1545 1544 1544 1544 1544 1544 1544 1544 1544 1544 1544 1544 1544 1544 1545 1544 1544 1543 1543 1542 1541 1541 1540 1540 1539 1539
1549 1548 1548 1547 1547 1547 1546 1546 1546 1546 1546 1546 1546 1546 1546 1546 1546 1545 1545 1546 1546 1546 1546 1546 1546 1546 1547 1547 1546 1546 1547 1546 1546 1546 1545 1544 1543 1543 1542 1542 1541 1541 1540
1549 1548 1548 1548 1547 1547 1546 1546 1546 1546 1546 1546 1547 1547 1547 1547 1547 1547 1547 1547 1548 1548 1548 1548 1548 1548 1549 1548 1548 1548 1548 1548 1548 1547 1546 1545 1545 1544 1544 1543 1543 1542 1542
1549 1549 1548 1548 1548 1547 1547 1546 1546 1546 1547 1547 1547 1547 1547 1547 1548 1548 1548 1549 1549 1549 1549 1550 1550 1550 1550 1550 1550 1550 1549 1549 1549 1548 1547 1547 1546 1546 1545 1545 1544 1544 1543
1549 1549 1548 1548 1548 1547 1547 1546 1547 1547 1547 1547 1547 1548 1548 1548 1548 1549 1549 1549 1550 1550 1550 1550 1551 1551 1552 1552 1552 1551 1551 1551 1550 1550 1549 1548 1548 1548 1547 1546 1546 1545 1544
1549 1549 1549 1548 1548 1548 1548 1547 1547 1547 1547 1548 1548 1548 1549 1549 1549 1549 1550 1550 1550 1551 1551 1552 1552 1552 1553 1553 1553 1552 1552 1552 1552 1551 1551 1551 1550 1549 1549 1548 1548 1547 1546
1550 1550 1549 1549 1548 1548 1548 1548 1548 1548 1548 1548 1548 1549 1549 1550 1550 1550 1550 1551 1551 1551 1552 1552 1553 1553 1554 1554 1554 1554 1553 1553 1553 1553 1553 1553 1552 1551 1551 1550 1549 1549 1548
1550 1550 1549 1549 1548 1548 1548 1548 1548 1548 1548 1548 1549 1549 1550 1550 1551 1550 1551 1551 1552 1552 1553 1553 1554 1554 1555 1555 1555 1555 1555 1554 1555 1555 1555 1554 1554 1553 1553 1552 1551 1551 1550
1549 1550 1550 1549 1549 1548 1548 1548 1548 1549 1548 1549 1549 1549 1549 1550 1551 1551 1551 1552 1552 1553 1553 1554 1554 1555 1556 1556 1556 1556 1556 1556 1556 1556 1556 1556 1555 1555 1555 1554 1553 1553 1552
1549 1549 1549 1549 1549 1548 1548 1549 1548 1549 1549 1549 1549 1549 1549 1550 1551 1551 1551 1552 1553 1553 1554 1554 1555 1555 1556 1556 1557 1557 1557 1557 1557 1557 1557 1557 1557 1557 1557 1556 1556 1555 1554
1548 1549 1549 1549 1549 1548 1548 1549 1548 1549 1549 1549 1549 1549 1549 1550 1551 1551 1552 1552 1553 1554 1554 1555 1555 1556 1557 1557 1558 1559 1559 1559 1559 1558 1558 1558 1558 1558 1558 1558 1557 1557 1556
1547 1548 1548 1549 1549 1548 1548 1549 1549 1549 1549 1549 1549 1549 1550 1550 1551 1551 1552 1552 1553 1554 1554 1555 1555 1556 1557 1558 1559 1559 1560 1561 1560 1560 1559 1559 1559 1559 1559 1559 1559 1558 1558
1546 1547 1547 1548 1548 1548 1548 1549 1549 1549 1549 1549 1549 1549 1550 1550 1551 1551 1552 1552 1553 1554 1554 1555 1555 1556 1557 1558 1558 1560 1560 1560 1561 1561 1560 1560 1560 1560 1560 1560 1560 1559 1559
1545 1546 1547 1547 1548 1548 1548 1548 1549 1549 1549 1549 1549 1549 1550 1550 1550 1551 1551 1552 1552 1553 1554 1555 1555 1556 1557 1557 1558 1558 1559 1559 1560 1561 1561 1561 1560 1560 1560 1560 1560 1560 1560
1543 1544 1545 1546 1546 1547 1547 1547 1548 1548 1549 1549 1549 1549 1550 1550 1550 1550 1551 1551 1552 1552 1553 1554 1554 1555 1555 1556 1557 1557 1558 1558 1559 1560 1560 1561 1561 1561 1560 1560 1561 1560 1560
1542 1543 1543 1544 1545 1546 1546 1547 1547 1548 1548 1548 1548 1549 1549 1549 1549 1550 1550 1550 1551 1552 1552 1552 1553 1553 1554 1555 1556 1557 1557 1557 1558 1559 1559 1560 1560 1561 1560 1560 1560 1560 1560